Flag for U.S.A. Weather past 2 weeks in Hialeah, Florida, U.S.A.

Now
81 °F

Clear.


Feels Like: 86 °F
Forecast: 77 / 90 °F
Wind: 9 mph from West

Location: Opa Locka Airport

Current Time: Apr 27, 2015 at 1:02:00 AM

Latest Report: Apr 26, 2015 at 11:53 PM


Visibility: 10 mi

Pressure: 29.84 "Hg

Humidity: 79%

Dew point: 74 °F

Location of HialeahLocation

Historic Weather in Hialeah — Graph

°F

Hialeah temperature yesterday

Maximum temperature yesterday: 96 °F (at 1:53 PM)
Minimum temperature yesterday: 75 °F (at 3:53 AM)
Average temperature yesterday: 85 °F

Past Weeks' High & Low Weather Summary

 TemperatureHumidityPressure
High96 °F (Apr 26, 1:53 PM)97% (Apr 24, 3:53 AM)30.18 "Hg (Apr 24, 3:53 AM)
Low73 °F (Apr 23, 6:53 AM)43% (Apr 26, 1:53 PM)29.77 "Hg (Apr 26, 4:53 PM)
Average81 °F73%30.00 "Hg
* Reported Apr 11 11:53 PM — Apr 26 11:53 PM, Hialeah, Weather by CustomWeather, © 2015

Note: Actual official high and low records may vary slightly from our data, if they occured in-between our weather recording intervals... More about our weather records

Advertising

Hialeah weather history for previous 24 hours

 ConditionsComfort  
Time TempWeatherWind HumidityBarometerVisibility
11:53 PM
Sun, Apr 26
81 °FClear.9 mph79%29.84 "Hg10 mi
10:53 PM81 °FClear.9 mph77%29.84 "Hg10 mi
9:53 PM83 °FClear.12 mph70%29.83 "Hg10 mi
8:53 PM85 °FClear.12 mph63%29.81 "Hg10 mi
7:53 PM88 °FSunny.12 mph55%29.78 "Hg10 mi
6:53 PM90 °FSunny.17 mph52%29.78 "Hg10 mi
5:53 PM93 °FSunny.20 mph47%29.77 "Hg10 mi
4:53 PM95 °FSunny.22 mph43%29.77 "Hg10 mi
3:53 PM96 °FSunny.23 mph43%29.77 "Hg10 mi
2:53 PM96 °FPassing clouds.21 mph44%29.79 "Hg10 mi
1:53 PM96 °FSunny.16 mph43%29.80 "Hg10 mi
12:53 PM94 °FSunny.20 mph46%29.81 "Hg10 mi
11:53 AM92 °FSunny.17 mph51%29.83 "Hg10 mi
10:53 AM89 °FSunny.15 mph55%29.84 "Hg10 mi
9:53 AM86 °FSunny.16 mph65%29.85 "Hg10 mi
8:53 AM83 °FSunny.12 mph77%29.85 "Hg10 mi
7:53 AM79 °FSunny.9 mph84%29.84 "Hg10 mi
6:53 AM76 °FClear.9 mph91%29.83 "Hg10 mi
5:53 AM76 °FClear.6 mph88%29.84 "Hg10 mi
4:53 AM75 °FClear.5 mph90%29.84 "Hg10 mi
3:53 AM75 °FClear.5 mph94%29.84 "Hg10 mi
2:53 AM76 °FClear.7 mph94%29.85 "Hg10 mi
1:53 AM77 °FClear.7 mph90%29.88 "Hg10 mi
Weather by CustomWeather, © 2015

See weather overviewHow to use our weather pages